sat.trackr.live / text

‹ back to catalog

STARLINK-1835

NORAD 46782 · 2020-074AV

PAYLOAD ACTIVE UNKNOWN

§ Identity

Operator
Country
US
Launch date
2020-10-24
Launch site
AFETR
Launch vehicle
Mass (kg)
RCS (m²)

Purposes: comms

External: N2YO · Heavens-Above · Gunter

§ Orbital elements

Epoch: 2026-08-29T06:52:35.399712Z

Period
88.58 min
Inclination
53.0195°
Eccentricity
0.0009070
Mean motion
16.25734627 rev/d
Perigee alt
198.1 km
Apogee alt
210.0 km
Semi-major
6,582.2 km
B*
8.6698e-4
RAAN
131.1403°
Arg perigee
247.6579°
Mean anomaly
112.3500°
Rev number
32,458

§ Raw data

STARLINK-18351 46782U 20074AV  26241.28652083  .02782647  11956-4  86698-3 0  99912 46782  53.0195 131.1403 0009070 247.6579 112.3500 16.25734627324588

JSON: /api/v1/satellites/46782 · /tle

For live sub-satellite position, see the globe view (requires WebGL).

§ Visibility from observer

Set your observer location to see the next 7 days of passes ≥ 10°. The values pass through the URL so the page stays shareable.

No JS? Fill the form by hand. The geolocation button needs JavaScript.